Terminal Aerodrome Forecast
Issued by NWS

Home | Current Version | Previous Version | Text Only | Print | Product List | Glossary On
Versions: 1 2 3 4 5 6 7 8 9 10 11 12
000
FTUS45 KRIW 181100
TAFCOD
TAF
KCOD 181129Z 1812/1912 21006KT P6SM SCT120 BKN250
     FM181700 15006KT P6SM SCT100
     FM182100 VRB06KT P6SM VCSH SCT100 BKN150
      AMD LTD TO CLD VIS AND WIND=

USA.gov is the U.S. government's official web portal to all federal, state and local government web resources and services.